Weather History for El Centro, CA

Change the Weather History Date:

Saturday, November 9, 2013

  Actual Average Record
Temperature  
Mean Temperature 64 °F -  
Max Temperature 81 °F 77 °F 89 °F (1996)
Min Temperature 48 °F 52 °F 44 °F (2000)
Growing Degree Days 14 (Base 50)    
Moisture  
Dew Point 30 °F    
Average Humidity 30    
Maximum Humidity 52    
Minimum Humidity 14    
Precipitation  
Precipitation 0.00 in - - ()
Sea Level Pressure  
Sea Level Pressure 30.05 in    
Wind  
Wind Speed 5 mph (WNW)    
Max Wind Speed 8 mph    
Max Gust Speed -    
Visibility 10 miles    
Events      
Averages and records for this station are not official NWS values.
T = Trace of Precipitation, MM = Missing Value Source: NWS Daily Summary

Daily Weather History Graph

Daily Weather History Graph

Search for Another Location

Airport:

Trip Planner

Search our weather history database for the weather conditions in past years. The results will help you decide how hot, cold, wet, or windy it might be!

Date:

Astronomy

Nov. 09, 2013 Rise Set
Actual Time 6:07 AM PST 4:44 PM PST
Civil Twilight 5:41 AM PST 5:10 PM PST
Nautical Twilight 5:12 AM PST 5:40 PM PST
Astronomical Twilight 4:43 AM PST 6:09 PM PST
Moon 11:50 AM PST (11/9) 11:15 PM PST (11/9)
Length of Visible Light 11h 28m
Length of Day
10h 37m
Waxing Crescent, 45% of the Moon is Illuminated
Nov 9
Waxing Crescent
Nov 9
First Quarter
Nov 17
Full
Nov 25
Last Quarter
Dec 2
New

Hourly Weather History & Observations

Time (PST) Temp. Dew Point Humidity Pressure Visibility Wind Dir Wind Speed Gust Speed Precip Events Conditions
12:56 AM 53.1 °F 21.9 °F 30% 29.99 in 10.0 mi West 8.1 mph - N/A   Clear
1:56 AM 52.0 °F 21.0 °F 30% 30.00 in 10.0 mi SSW 5.8 mph - N/A   Clear
2:56 AM 48.9 °F 23.0 °F 36% 30.00 in 10.0 mi WSW 5.8 mph - N/A   Clear
3:56 AM 48.9 °F 21.9 °F 35% 30.01 in 10.0 mi WSW 4.6 mph - N/A   Clear
4:56 AM 51.1 °F 21.0 °F 31% 30.03 in 10.0 mi West 5.8 mph - N/A   Clear
5:56 AM 48.9 °F 21.0 °F 33% 30.05 in 10.0 mi Calm Calm - N/A   Clear
6:56 AM 48.0 °F 30.0 °F 50% 30.07 in 10.0 mi SE 3.5 mph - N/A   Clear
7:56 AM 54.0 °F 26.1 °F 34% 30.09 in 10.0 mi WSW 4.6 mph - N/A   Clear
8:56 AM 64.0 °F 30.9 °F 29% 30.09 in 10.0 mi West 4.6 mph - N/A   Clear
9:56 AM 73.0 °F 33.1 °F 23% 30.09 in 10.0 mi North 5.8 mph - N/A   Clear
10:56 AM 75.0 °F 35.1 °F 23% 30.08 in 10.0 mi ENE 4.6 mph - N/A   Clear
11:56 AM 77.0 °F 32.0 °F 19% 30.05 in 10.0 mi Calm Calm - N/A   Clear
12:56 PM 80.1 °F 34.0 °F 19% 30.03 in 10.0 mi Calm Calm - N/A   Clear
1:56 PM 81.0 °F 34.0 °F 18% 30.02 in 10.0 mi ESE 4.6 mph - N/A   Clear
2:56 PM 81.0 °F 30.0 °F 16% 30.01 in 10.0 mi East 4.6 mph - N/A   Clear
3:56 PM 81.0 °F 28.0 °F 14% 30.01 in 10.0 mi Calm Calm - N/A   Clear
4:56 PM 73.0 °F 37.0 °F 27% 30.01 in 10.0 mi NNE 3.5 mph - N/A   Clear
5:56 PM 66.9 °F 37.9 °F 34% 30.03 in 10.0 mi NNE 4.6 mph - N/A   Clear
6:56 PM 64.0 °F 32.0 °F 30% 30.05 in 10.0 mi North 5.8 mph - N/A   Clear
7:56 PM 61.0 °F 43.0 °F 52% 30.06 in 10.0 mi NNW 3.5 mph - N/A   Clear
8:56 PM 61.0 °F 33.1 °F 35% 30.08 in 8.0 mi Calm Calm - N/A   Clear
9:56 PM 57.9 °F 28.9 °F 33% 30.08 in 10.0 mi WNW 4.6 mph - N/A   Clear
10:56 PM 55.9 °F 30.0 °F 37% 30.08 in 10.0 mi West 5.8 mph - N/A   Clear
11:56 PM 57.0 °F 28.0 °F 33% 30.07 in 10.0 mi SW 5.8 mph - N/A   Clear